IST,Max TemperatureF,Mean TemperatureF,Min TemperatureF,Max Dew PointF,MeanDew PointF,Min DewpointF,Max Humidity, Mean Humidity, Min Humidity, Max Sea Level PressureIn, Mean Sea Level PressureIn, Min Sea Level PressureIn, Max VisibilityMiles, Mean VisibilityMiles, Min VisibilityMiles, Max Wind SpeedMPH, Mean Wind SpeedMPH, Max Gust SpeedMPH,PrecipitationIn, CloudCover, Events, WindDirDegrees
2013-3-1,47,36,26,41,37,27,100,87,64,30.53,30.49,30.48,16,6,2,14,7,,0.00,5,,34
2013-3-2,44,34,25,37,32,25,100,88,66,30.51,30.38,30.27,16,7,6,9,5,,0.00,4,,305
2013-3-3,47,41,35,37,35,32,93,79,57,30.27,30.16,30.04,19,7,6,14,5,,0.00,5,Fog,150
2013-3-4,44,38,30,34,33,30,100,76,54,30.06,29.87,29.71,16,6,5,14,9,,0.00,5,,135
2013-3-5,48,36,25,39,35,27,100,88,57,29.74,29.62,29.56,5,4,1,14,6,,0.00,3,,65
2013-3-6,47,44,40,45,42,39,100,94,86,29.57,29.49,29.44,3,1,1,15,9,,0.16,6,Rain,74
2013-3-7,45,44,44,45,43,43,100,95,87,29.47,29.36,29.30,2,1,0,17,11,,0.20,6,Fog-Rain,85
2013-3-8,47,45,43,46,45,43,100,96,92,29.50,29.36,29.27,3,1,0,22,14,,0.04,6,Fog-Rain,111
2013-3-9,43,41,39,45,41,36,100,97,87,29.71,29.58,29.50,6,2,1,20,13,,0.04,6,Rain,77
2013-3-10,40,36,33,36,29,18,87,71,48,29.92,29.79,29.71,19,7,6,30,23,46,0.00,6,Snow,74
2013-3-11,35,30,26,27,21,16,100,64,40,30.06,29.99,29.92,19,6,2,28,23,39,0.02,5,Snow-Hail,56
2013-3-12,40,34,28,30,25,18,93,69,44,30.10,30.03,29.98,16,6,6,21,14,,0.00,4,Snow,336
2013-3-13,45,36,28,34,31,28,100,84,54,30.06,29.99,29.95,19,7,2,20,10,,0.04,3,Rain-Snow,307
2013-3-14,47,37,27,39,33,27,93,84,69,30.09,29.95,29.71,19,7,6,20,12,,0.01,6,Rain,253
2013-3-15,49,42,30,39,35,28,93,76,47,29.73,29.48,29.36,19,7,6,22,16,32,0.02,5,Rain,224
2013-3-16,46,36,25,36,31,25,100,85,57,29.36,29.29,29.27,12,6,6,14,6,,0.02,3,,311
2013-3-17,40,36,31,39,34,30,100,94,86,29.47,29.17,29.09,19,7,1,17,10,,0.12,6,Rain-Snow,282
2013-3-18,44,38,32,37,35,32,100,91,76,29.42,29.28,29.15,19,7,3,17,10,,0.12,6,Rain-Snow,19
2013-3-19,38,35,32,37,33,30,100,94,79,29.50,29.45,29.42,16,6,2,16,11,,0.20,5,Rain-Snow,344
2013-3-20,44,38,32,39,35,32,100,92,75,29.89,29.70,29.50,16,5,0,13,7,,0.08,5,Fog-Rain-Snow,145
2013-3-21,42,38,34,37,35,32,93,84,66,29.90,29.78,29.59,16,6,5,31,21,45,0.08,6,Rain,107
2013-3-22,41,39,37,39,38,36,100,95,87,29.68,29.56,29.50,7,5,2,32,25,46,0.75,6,Rain,113
2013-3-23,38,36,35,37,35,32,100,91,82,29.92,29.80,29.68,11,6,2,21,17,,0.00,6,Rain,91
2013-3-24,35,34,33,32,28,25,87,78,65,30.06,29.97,29.92,12,7,6,25,21,38,0.00,6,Rain,88
2013-3-25,40,36,33,28,26,23,75,66,51,30.10,30.07,30.06,19,7,6,26,22,38,0.00,6,,82
2013-3-26,38,35,32,32,28,23,93,79,56,30.11,30.06,30.01,19,6,2,22,18,32,0.08,6,Snow,77
2013-3-27,37,34,31,32,29,27,100,85,61,30.04,29.99,29.98,16,5,2,21,13,26,0.08,6,Snow,77
2013-3-28,39,34,28,32,29,23,100,79,53,30.03,29.97,29.92,19,6,1,18,11,,0.00,6,Snow,95
2013-3-29,39,36,32,27,25,23,70,63,48,29.94,29.87,29.83,16,6,6,18,15,,0.00,6,,97
2013-3-30,42,38,33,28,24,21,70,58,37,29.97,29.92,29.86,6,6,6,18,13,,0.00,5,,104
2013-3-31,41,38,36,30,27,23,75,63,44,29.95,29.88,29.83,19,6,6,24,17,,0.00,5,Rain,125
2013-4-1,,,,,,,,,,,,,,,,,,,,,,